Time,TemperatureF,DewpointF,PressureIn,WindDirection,WindDirectionDegrees,WindSpeedMPH,WindSpeedGustMPH,Humidity,HourlyPrecipIn,Conditions,Clouds,dailyrainin,SoftwareType,DateUTC
2013-01-30 00:07:00,50.9,50.6,29.16,WSW,247,0.0,-999.0,99,-99.99,,,0.00,Acu-Link.com,2013-01-30 06:07:00,
2013-01-30 00:22:00,44.4,43.9,29.16,NW,315,7.3,-999.0,98,-99.99,,,0.01,Acu-Link.com,2013-01-30 06:22:00,
2013-01-30 00:38:00,42.3,42.0,29.18,WNW,292,3.2,-999.0,99,-99.99,,,0.02,Acu-Link.com,2013-01-30 06:38:00,
2013-01-30 00:53:00,41.5,41.2,29.18,WNW,292,2.2,-999.0,99,-99.99,,,0.03,Acu-Link.com,2013-01-30 06:53:00,
2013-01-30 01:08:00,40.8,40.5,29.17,West,270,2.7,-999.0,99,-99.99,,,0.06,Acu-Link.com,2013-01-30 07:08:00,
2013-01-30 01:23:00,40.5,40.2,29.15,NW,315,4.2,-999.0,99,-99.99,,,0.11,Acu-Link.com,2013-01-30 07:23:00,
2013-01-30 01:39:00,40.5,40.2,29.17,WNW,292,0.0,-999.0,99,-99.99,,,0.12,Acu-Link.com,2013-01-30 07:39:00,
2013-01-30 01:54:00,40.3,40.0,29.18,NW,315,3.7,-999.0,99,-99.99,,,0.12,Acu-Link.com,2013-01-30 07:54:00,
2013-01-30 02:09:00,39.9,39.6,29.16,East,90,0.0,-999.0,99,-99.99,,,0.12,Acu-Link.com,2013-01-30 08:09:00,
2013-01-30 02:25:00,39.6,39.3,29.18,NW,315,0.0,-999.0,99,-99.99,,,0.14,Acu-Link.com,2013-01-30 08:25:00,
2013-01-30 02:40:00,39.6,39.3,29.18,NW,315,3.2,-999.0,99,-99.99,,,0.15,Acu-Link.com,2013-01-30 08:40:00,
2013-01-30 02:55:00,39.4,39.1,29.19,NW,315,1.7,-999.0,99,-99.99,,,0.15,Acu-Link.com,2013-01-30 08:55:00,
2013-01-30 03:15:00,39.4,39.1,29.21,NW,315,0.0,-999.0,99,-99.99,,,0.15,Acu-Link.com,2013-01-30 09:15:00,
2013-01-30 03:30:00,39.2,38.9,29.20,NW,315,0.0,-999.0,99,-99.99,,,0.17,Acu-Link.com,2013-01-30 09:30:00,
2013-01-30 03:45:00,39.0,38.7,29.17,ESE,112,0.0,-999.0,99,-99.99,,,0.19,Acu-Link.com,2013-01-30 09:45:00,
2013-01-30 04:00:00,38.5,38.2,29.09,East,90,3.7,-999.0,99,-99.99,,,0.20,Acu-Link.com,2013-01-30 10:00:00,
2013-01-30 04:16:00,37.9,37.6,29.08,ESE,112,1.7,-999.0,99,-99.99,,,0.20,Acu-Link.com,2013-01-30 10:16:00,
2013-01-30 04:31:00,37.9,37.6,29.11,NNE,22,0.0,-999.0,99,-99.99,,,0.20,Acu-Link.com,2013-01-30 10:31:00,
2013-01-30 04:46:00,37.9,37.6,29.08,NE,45,0.0,-999.0,99,-99.99,,,0.20,Acu-Link.com,2013-01-30 10:46:00,
2013-01-30 05:01:00,37.9,37.6,29.09,NE,45,0.0,-999.0,99,-99.99,,,0.20,Acu-Link.com,2013-01-30 11:01:00,
2013-01-30 05:17:00,37.9,37.6,29.10,NE,45,0.0,-999.0,99,-99.99,,,0.20,Acu-Link.com,2013-01-30 11:17:00,
2013-01-30 05:32:00,37.9,37.6,29.11,ESE,112,4.2,-999.0,99,-99.99,,,0.20,Acu-Link.com,2013-01-30 11:32:00,
2013-01-30 05:47:00,37.8,37.5,29.10,ENE,67,2.7,-999.0,99,-99.99,,,0.20,Acu-Link.com,2013-01-30 11:47:00,
2013-01-30 06:03:00,37.8,37.5,29.09,ESE,112,0.0,-999.0,99,-99.99,,,0.20,Acu-Link.com,2013-01-30 12:03:00,
2013-01-30 06:18:00,37.6,37.3,29.07,ESE,112,2.2,-999.0,99,-99.99,,,0.20,Acu-Link.com,2013-01-30 12:18:00,
2013-01-30 06:33:00,37.4,37.1,29.08,ENE,67,0.0,-999.0,99,-99.99,,,0.20,Acu-Link.com,2013-01-30 12:33:00,
2013-01-30 06:48:00,37.4,37.1,29.07,ESE,112,0.0,-999.0,99,-99.99,,,0.20,Acu-Link.com,2013-01-30 12:48:00,
2013-01-30 07:04:00,37.4,37.1,29.05,ESE,112,0.0,-999.0,99,-99.99,,,0.20,Acu-Link.com,2013-01-30 13:04:00,
2013-01-30 07:19:00,37.4,37.1,29.07,ESE,112,0.0,-999.0,99,-99.99,,,0.21,Acu-Link.com,2013-01-30 13:19:00,
2013-01-30 07:34:00,37.8,37.5,29.05,ESE,112,0.0,-999.0,99,-99.99,,,0.23,Acu-Link.com,2013-01-30 13:34:00,
2013-01-30 07:50:00,38.3,38.0,29.05,ESE,112,0.0,-999.0,99,-99.99,,,0.24,Acu-Link.com,2013-01-30 13:50:00,
2013-01-30 08:05:00,39.2,38.9,29.03,ESE,112,0.0,-999.0,99,-99.99,,,0.26,Acu-Link.com,2013-01-30 14:05:00,
2013-01-30 08:20:00,40.5,40.2,29.03,West,270,2.7,-999.0,99,-99.99,,,0.26,Acu-Link.com,2013-01-30 14:20:00,
2013-01-30 08:35:00,40.3,40.0,29.05,WSW,247,9.4,-999.0,99,-99.99,,,0.30,Acu-Link.com,2013-01-30 14:35:00,
2013-01-30 08:50:00,38.3,38.0,29.06,WSW,247,4.7,-999.0,99,-99.99,,,0.30,Acu-Link.com,2013-01-30 14:50:00,
2013-01-30 09:06:00,37.2,36.9,29.07,WSW,247,3.2,-999.0,99,-99.99,,,0.31,Acu-Link.com,2013-01-30 15:06:00,
2013-01-30 09:21:00,37.0,36.7,29.06,WNW,292,2.2,-999.0,99,-99.99,,,0.31,Acu-Link.com,2013-01-30 15:21:00,
2013-01-30 09:36:00,37.2,36.9,29.06,West,270,2.7,-999.0,99,-99.99,,,0.31,Acu-Link.com,2013-01-30 15:36:00,
2013-01-30 09:52:00,37.2,36.4,29.07,NNW,337,2.2,-999.0,97,-99.99,,,0.31,Acu-Link.com,2013-01-30 15:52:00,
2013-01-30 10:07:00,37.2,36.4,29.06,WNW,292,0.0,-999.0,97,-99.99,,,0.31,Acu-Link.com,2013-01-30 16:07:00,
2013-01-30 10:22:00,37.4,36.1,29.09,West,270,5.8,-999.0,95,-99.99,,,0.31,Acu-Link.com,2013-01-30 16:22:00,
2013-01-30 10:37:00,36.9,35.9,29.09,SSE,157,4.2,-999.0,96,-99.99,,,0.31,Acu-Link.com,2013-01-30 16:37:00,
2013-01-30 10:53:00,36.3,35.5,29.08,West,270,3.2,-999.0,97,-99.99,,,0.31,Acu-Link.com,2013-01-30 16:53:00,
2013-01-30 11:08:00,35.8,35.0,29.10,West,270,6.8,-999.0,97,-99.99,,,0.31,Acu-Link.com,2013-01-30 17:08:00,
2013-01-30 11:23:00,35.2,34.7,29.11,West,270,0.0,-999.0,98,-99.99,,,0.31,Acu-Link.com,2013-01-30 17:23:00,
2013-01-30 11:38:00,34.9,34.4,29.10,WNW,292,3.2,-999.0,98,-99.99,,,0.31,Acu-Link.com,2013-01-30 17:38:00,
2013-01-30 11:54:00,35.1,34.8,29.10,West,270,3.2,-999.0,99,-99.99,,,0.31,Acu-Link.com,2013-01-30 17:54:00,
2013-01-30 12:09:00,35.1,34.6,29.10,NW,315,2.7,-999.0,98,-99.99,,,0.32,Acu-Link.com,2013-01-30 18:09:00,
2013-01-30 12:24:00,34.5,34.0,29.10,West,270,6.3,-999.0,98,-99.99,,,0.32,Acu-Link.com,2013-01-30 18:24:00,
2013-01-30 12:39:00,33.3,32.8,29.10,WNW,292,9.4,-999.0,98,-99.99,,,0.32,Acu-Link.com,2013-01-30 18:39:00,
2013-01-30 12:54:00,32.0,31.5,29.11,WNW,292,5.3,-999.0,98,-99.99,,,0.32,Acu-Link.com,2013-01-30 18:54:00,
2013-01-30 13:10:00,31.8,31.3,29.13,West,270,8.3,-999.0,98,-99.99,,,0.32,Acu-Link.com,2013-01-30 19:10:00,
2013-01-30 13:25:00,31.6,30.8,29.13,NNW,337,3.7,-999.0,97,-99.99,,,0.32,Acu-Link.com,2013-01-30 19:25:00,
2013-01-30 13:40:00,30.9,30.2,29.14,NW,315,6.3,-999.0,97,-99.99,,,0.32,Acu-Link.com,2013-01-30 19:40:00,
2013-01-30 13:56:00,30.4,29.7,29.16,NW,315,4.7,-999.0,97,-99.99,,,0.32,Acu-Link.com,2013-01-30 19:56:00,
2013-01-30 14:11:00,30.4,29.9,29.16,WNW,292,5.3,-999.0,98,-99.99,,,0.32,Acu-Link.com,2013-01-30 20:11:00,
2013-01-30 14:26:00,29.7,29.0,29.17,West,270,5.8,-999.0,97,-99.99,,,0.32,Acu-Link.com,2013-01-30 20:26:00,
2013-01-30 14:41:00,28.9,28.2,29.19,WNW,292,6.8,-999.0,97,-99.99,,,0.32,Acu-Link.com,2013-01-30 20:41:00,
2013-01-30 14:57:00,27.7,26.7,29.19,West,270,6.3,-999.0,96,-99.99,,,0.32,Acu-Link.com,2013-01-30 20:57:00,
2013-01-30 15:12:00,27.1,26.1,29.21,West,270,5.8,-999.0,96,-99.99,,,0.32,Acu-Link.com,2013-01-30 21:12:00,
2013-01-30 15:27:00,26.8,25.3,29.23,WSW,247,3.2,-999.0,94,-99.99,,,0.32,Acu-Link.com,2013-01-30 21:27:00,
2013-01-30 15:42:00,26.2,24.7,29.24,WNW,292,13.0,-999.0,94,-99.99,,,0.32,Acu-Link.com,2013-01-30 21:42:00,
2013-01-30 15:58:00,26.1,24.6,29.25,WNW,292,8.3,-999.0,94,-99.99,,,0.32,Acu-Link.com,2013-01-30 21:58:00,
2013-01-30 16:13:00,26.1,24.4,29.27,WNW,292,10.4,-999.0,93,-99.99,,,0.32,Acu-Link.com,2013-01-30 22:13:00,
2013-01-30 16:28:00,26.1,24.4,29.27,NW,315,3.7,-999.0,93,-99.99,,,0.32,Acu-Link.com,2013-01-30 22:28:00,
2013-01-30 16:44:00,25.9,23.9,29.29,West,270,4.7,-999.0,92,-99.99,,,0.32,Acu-Link.com,2013-01-30 22:44:00,
2013-01-30 16:59:00,25.5,23.5,29.30,WSW,247,4.7,-999.0,92,-99.99,,,0.32,Acu-Link.com,2013-01-30 22:59:00,
2013-01-30 17:14:00,24.8,22.6,29.32,WSW,247,7.3,-999.0,91,-99.99,,,0.32,Acu-Link.com,2013-01-30 23:14:00,
2013-01-30 17:29:00,24.3,21.5,29.33,NW,315,2.7,-999.0,89,-99.99,,,0.32,Acu-Link.com,2013-01-30 23:29:00,
2013-01-30 17:45:00,24.3,22.6,29.34,NW,315,4.2,-999.0,93,-99.99,,,0.32,Acu-Link.com,2013-01-30 23:45:00,
2013-01-30 18:00:00,24.1,21.9,29.36,NW,315,6.3,-999.0,91,-99.99,,,0.32,Acu-Link.com,2013-01-31 00:00:00,
2013-01-30 18:15:00,23.7,21.2,29.37,SSE,157,11.9,-999.0,90,-99.99,,,0.32,Acu-Link.com,2013-01-31 00:15:00,
2013-01-30 18:30:00,23.2,20.4,29.38,NNW,337,5.8,-999.0,89,-99.99,,,0.32,Acu-Link.com,2013-01-31 00:30:00,
2013-01-30 18:46:00,22.6,20.1,29.39,WNW,292,6.3,-999.0,90,-99.99,,,0.32,Acu-Link.com,2013-01-31 00:46:00,
2013-01-30 19:01:00,22.1,19.9,29.39,WNW,292,4.2,-999.0,91,-99.99,,,0.32,Acu-Link.com,2013-01-31 01:01:00,
2013-01-30 19:16:00,21.7,19.2,29.40,West,270,5.8,-999.0,90,-99.99,,,0.32,Acu-Link.com,2013-01-31 01:16:00,
2013-01-30 19:31:00,21.0,18.0,29.41,NW,315,5.3,-999.0,88,-99.99,,,0.32,Acu-Link.com,2013-01-31 01:31:00,
2013-01-30 19:47:00,20.8,18.1,29.43,SE,135,4.2,-999.0,89,-99.99,,,0.32,Acu-Link.com,2013-01-31 01:47:00,
2013-01-30 20:02:00,19.9,17.2,29.43,SSW,202,5.3,-999.0,89,-99.99,,,0.32,Acu-Link.com,2013-01-31 02:02:00,
2013-01-30 20:17:00,19.4,16.2,29.44,WNW,292,16.1,-999.0,87,-99.99,,,0.32,Acu-Link.com,2013-01-31 02:17:00,
2013-01-30 20:32:00,19.6,17.2,29.44,NW,315,10.4,-999.0,90,-99.99,,,0.32,Acu-Link.com,2013-01-31 02:32:00,
2013-01-30 20:48:00,19.8,16.6,29.46,West,270,7.3,-999.0,87,-99.99,,,0.32,Acu-Link.com,2013-01-31 02:48:00,
2013-01-30 21:03:00,19.8,16.8,29.46,West,270,3.2,-999.0,88,-99.99,,,0.32,Acu-Link.com,2013-01-31 03:03:00,
2013-01-30 21:18:00,19.8,16.8,29.47,WNW,292,5.3,-999.0,88,-99.99,,,0.32,Acu-Link.com,2013-01-31 03:18:00,
2013-01-30 21:33:00,19.6,17.2,29.48,West,270,7.8,-999.0,90,-99.99,,,0.32,Acu-Link.com,2013-01-31 03:33:00,
2013-01-30 21:49:00,19.4,16.2,29.49,West,270,4.2,-999.0,87,-99.99,,,0.32,Acu-Link.com,2013-01-31 03:49:00,
2013-01-30 22:04:00,19.4,16.2,29.49,WNW,292,6.8,-999.0,87,-99.99,,,0.32,Acu-Link.com,2013-01-31 04:04:00,
2013-01-30 22:19:00,19.0,15.2,29.50,West,270,4.7,-999.0,85,-99.99,,,0.32,Acu-Link.com,2013-01-31 04:19:00,
2013-01-30 22:34:00,18.7,15.2,29.50,WSW,247,4.7,-999.0,86,-99.99,,,0.32,Acu-Link.com,2013-01-31 04:34:00,
2013-01-30 22:50:00,18.0,14.5,29.52,West,270,4.7,-999.0,86,-99.99,,,0.32,Acu-Link.com,2013-01-31 04:50:00,
2013-01-30 23:05:00,17.8,14.3,29.52,NW,315,3.7,-999.0,86,-99.99,,,0.32,Acu-Link.com,2013-01-31 05:05:00,
2013-01-30 23:20:00,17.4,13.4,29.53,NW,315,7.3,-999.0,84,-99.99,,,0.32,Acu-Link.com,2013-01-31 05:20:00,
2013-01-30 23:36:00,17.1,13.1,29.54,WNW,292,4.7,-999.0,84,-99.99,,,0.32,Acu-Link.com,2013-01-31 05:36:00,
2013-01-30 23:51:00,17.1,13.1,29.55,West,270,2.2,-999.0,84,-99.99,,,0.32,Acu-Link.com,2013-01-31 05:51:00,